Flag for United Kingdom Weather past 2 weeks in Bradford, England, United Kingdom

Now
46 °F

Scattered clouds.


Feels Like: 41 °F
Forecast: 47 / 54 °F
Wind: 10 mph from West

Location: Leeds And Bradford

Current Time: May 4, 2015 at 7:24:11 AM

Latest Report: May 4, 2015 at 6:50 AM


Visibility: N/A

Pressure: 29.50 "Hg

Humidity: 82%

Dew point: 41 °F

Location of BradfordLocation

Historic Weather in Bradford — Graph

°F

Bradford temperature yesterday

Maximum temperature yesterday: 61 °F (at 3:20 PM)
Minimum temperature yesterday: 41 °F (at 12:20 AM)
Average temperature yesterday: 49 °F

Past Weeks' High & Low Weather Summary

 TemperatureHumidityPressure
High64 °F (Apr 23, 3:20 PM)100% (Apr 19, 10:20 PM)30.60 "Hg (Apr 19, 10:20 PM)
Low30 °F (Apr 27, 2:50 AM)24% (Apr 27, 1:50 PM)29.27 "Hg (May 3, 3:20 PM)
Average46 °F76%29.94 "Hg
* Reported Apr 19 6:20 AM — May 4 6:20 AM, Bradford, Weather by CustomWeather, © 2015

Note: Actual official high and low records may vary slightly from our data, if they occured in-between our weather recording intervals... More about our weather records

Advertising

Bradford weather history for previous 24 hours

 ConditionsComfort  
Time TempWeatherWind HumidityBarometerVisibility
6:20 AM
Mon, May 4
46 °FPassing clouds.15 mph87%29.47 "HgN/A
5:50 AM46 °FPassing clouds.14 mph87%29.47 "HgN/A
4:50 AM46 °FSprinkles. Passing clouds.10 mph87%29.45 "HgN/A
4:20 AM46 °FSprinkles. Passing clouds.10 mph93%29.42 "HgN/A
3:50 AM52 °FSprinkles. Passing clouds.12 mph88%29.39 "HgN/A
3:20 AM52 °FSprinkles. Passing clouds.14 mph88%29.39 "HgN/A
2:50 AM52 °FSprinkles. Passing clouds.12 mph88%29.39 "HgN/A
2:20 AM52 °FSprinkles. Passing clouds.10 mph88%29.39 "Hg5 mi
1:20 AM52 °FSprinkles. Passing clouds.10 mph94%29.39 "Hg5 mi
12:50 AM52 °FSprinkles. Passing clouds.10 mph88%29.36 "Hg5 mi
12:20 AM52 °FSprinkles. Passing clouds.14 mph88%29.36 "Hg5 mi
11:50 PM
Sun, May 3
52 °FLight rain. Passing clouds.10 mph88%29.39 "Hg5 mi
11:20 PM52 °FPassing clouds.8 mph88%29.39 "HgN/A
10:50 PM52 °FPassing clouds.8 mph88%29.39 "HgN/A
10:20 PM52 °FPassing clouds.6 mph88%29.39 "HgN/A
9:20 PM52 °FSprinkles. Scattered clouds.7 mph88%29.36 "HgN/A
8:50 PM54 °FScattered clouds.7 mph77%29.36 "HgN/A
8:20 PM54 °FScattered clouds.10 mph72%29.36 "HgN/A
7:50 PM55 °FScattered clouds.12 mph72%29.33 "HgN/A
7:20 PM57 °FScattered clouds.15 mph67%29.33 "HgN/A
6:50 PM57 °FScattered clouds.18 mph67%29.33 "HgN/A
6:20 PM59 °FScattered clouds.16 mph68%29.33 "HgN/A
5:50 PM59 °FScattered clouds.15 mph72%29.30 "HgN/A
5:20 PM59 °FScattered clouds.15 mph77%29.30 "HgN/A
4:50 PM59 °FScattered clouds.14 mph88%29.30 "HgN/A
4:20 PM55 °FSprinkles. Scattered clouds.14 mph88%29.30 "HgN/A
3:50 PM61 °FScattered clouds.13 mph68%29.27 "HgN/A
3:20 PM61 °FScattered clouds.13 mph72%29.27 "HgN/A
2:50 PM57 °FScattered clouds.8 mph88%29.30 "HgN/A
2:20 PM55 °FScattered clouds.7 mph94%29.30 "HgN/A
1:50 PM52 °FPartly sunny.2 mph100%29.30 "Hg4 mi
1:20 PM50 °FFog.3 mph100%29.30 "Hg2 mi
12:50 PM50 °FFog.5 mph100%29.30 "Hg2 mi
12:20 PM48 °FFog.5 mph100%29.30 "Hg1 mi
11:50 AM48 °FDrizzle. Fog.9 mph100%29.30 "Hg1 mi
11:20 AM48 °FLight rain. Broken clouds.9 mph100%29.30 "Hg1 mi
10:50 AM46 °FLight rain. Partly sunny.9 mph100%29.33 "Hg1 mi
10:20 AM46 °FLight rain. Broken clouds.10 mph100%29.33 "Hg1 mi
9:50 AM46 °FRain. Broken clouds.12 mph100%29.33 "Hg1 mi
9:20 AM45 °FRain. Broken clouds.14 mph100%29.36 "Hg1 mi
8:50 AM45 °FRain. Broken clouds.16 mph100%29.36 "Hg1 mi
8:20 AM45 °FRain. Broken clouds.16 mph100%29.39 "Hg1 mi
7:50 AM45 °FRain. Broken clouds.16 mph100%29.39 "Hg1 mi
7:20 AM45 °FRain showers. Broken clouds.15 mph100%29.42 "Hg1 mi
Weather by CustomWeather, © 2015

See weather overviewHow to use our weather pages